This demonstration page uses our WeatherBlox Daily Observations layout. Learn more.

Left ArrowRight Arrow

38.88101, -77.10428

Hourly Observations for December 5, 2019

Temp ( °F °C ) Dew Point ( °F °C ) Humidity (%) Winds ( mph kmh ) Pressure ( in mb ) Visibility ( mi km ) Precip ( " mm )
12:52 am 00:52 Mostly Cloudy 41 5 33 0.6 73 73 WSW 7 11 29.66 1004 10 16.0934 0 0
1:52 am 01:52 Cloudy 42 5.6 34 1.1 73 73 W 13 20 29.69 1005 10 16.0934 0 0
2:52 am 02:52 Mostly Cloudy 41 5 30 -1.1 65 65 W 15 24 29.72 1006 10 16.0934 0 0
3:52 am 03:52 Mostly Cloudy 41 5 29 -1.7 62 62 WNW 13 20 29.75 1008 10 16.0934 0 0
4:52 am 04:52 Mostly Cloudy 40 4.4 28 -2.2 63 63 WNW 12 19 29.78 1008 10 16.0934 0 0
5:52 am 05:52 Partly Cloudy 40 4.4 26 -3.3 58 58 W 9 15 29.82 1010 10 16.0934 0 0
6:52 am 06:52 Mostly Clear 40 4.4 26 -3.3 58 58 W 9 15 29.87 1011 10 16.0934 0 0
7:52 am 07:52 Mostly Cloudy 40 4.4 26 -3.3 58 58 NW 6 9 29.9 1013 10 16.0934 0 0
8:52 am 08:52 Partly Cloudy 43 6.1 25 -3.9 49 49 WNW 16 26 29.92 1013 10 16.0934 0 0
9:52 am 09:52 Cloudy 43 6.1 25 -3.9 49 49 WNW 13 20 29.96 1015 10 16.0934 0 0
10:52 am 10:52 Mostly Cloudy 46 7.8 24 -4.4 42 42 WNW 20 31 29.98 1015 10 16.0934 0 0
11:52 am 11:52 Partly Cloudy 48 8.9 24 -4.4 39 39 W 17 28 29.98 1015 10 16.0934 0 0
12:52 pm 12:52 Partly Cloudy 47 8.3 24 -4.4 41 41 WNW 17 28 29.97 1015 10 16.0934 0 0
1:52 pm 13:52 Mostly Sunny 48 8.9 23 -5 37 37 W 14 22 29.99 1016 10 16.0934 0 0
2:52 pm 14:52 Mostly Sunny 48 8.9 22 -5.6 36 36 NW 14 22 30 1016 10 16.0934 0 0
3:52 pm 15:52 Sunny 47 8.3 22 -5.6 37 37 WNW 15 24 30.04 1017 10 16.0934 0 0
4:52 pm 16:52 Mostly Clear 46 7.8 21 -6.1 37 37 W 9 15 30.06 1018 10 16.0934 0 0
5:52 pm 17:52 Mostly Clear 44 6.7 22 -5.6 41 41 NW 8 13 30.09 1019 10 16.0934 0 0
6:52 pm 18:52 Mostly Clear 44 6.7 23 -5 43 43 W 8 13 30.11 1020 10 16.0934 0 0
7:52 pm 19:52 Clear 44 6.7 23 -5 43 43 WNW 7 11 30.13 1020 10 16.0934 0 0
8:52 pm 20:52 Partly Cloudy 42 5.6 23 -5 47 47 NNW 6 9 30.15 1021 10 16.0934 0 0
9:52 pm 21:52 Mostly Cloudy 40 4.4 24 -4.4 53 53 Calm 30.16 1021 10 16.0934 0 0
10:52 pm 22:52 Cloudy 38 3.3 28 -2.2 68 68 WSW 5 7 30.17 1022 10 16.0934 0 0
11:52 pm 23:52 Cloudy 40 4.4 27 -2.8 60 60 SSW 3 6 30.18 1022 10 16.0934 0 0

Powered by AerisWeather